GFSSE_250_rhum_249.txt.gz
RH
33 20 48 49 56 60 57 48 61 46 38 36 35 38 37 36 42 51 62 60 55 62 64 72 61 50 44 41 41 38 35 33 32 27 25 20 18 17 15 14 12 11 9
42 45 39 20 18 25 23 29 62 36 32 33 39 44 38 39 44 49 56 58 57 56 60 43 38 35 30 27 30 27 24 22 20 18 18 16 14 13 10 10 8 8 8
21 32 40 52 38 26 27 51 59 44 19 14 12 11 12 14 21 25 29 26 23 21 23 26 25 26 25 23 22 21 19 18 16 16 13 12 11 10 10 10 8 9 12
10 17 29 35 54 50 47 43 46 70 49 23 21 14 12 12 15 18 17 17 19 20 21 23 29 26 25 24 21 18 16 17 16 15 13 11 12 12 12 13 15 12 14
8 9 14 25 40 57 65 62 58 52 64 59 56 31 32 18 13 14 15 16 17 18 19 29 26 24 24 22 20 19 17 16 18 19 19 18 14 18 17 25 27 23 18
10 8 9 9 13 25 37 70 64 58 65 52 42 43 43 31 18 16 18 20 18 19 22 23 28 27 23 22 23 23 21 16 20 20 22 23 18 27 25 31 34 41 29
12 11 10 9 9 10 13 21 28 42 55 60 62 58 45 44 39 27 33 28 23 23 26 26 25 23 21 21 20 23 26 24 26 33 22 24 26 25 39 44 41 61 75
18 16 14 12 11 13 12 9 12 21 32 49 69 68 62 54 49 56 69 74 73 33 27 30 32 36 34 30 24 23 26 28 28 28 33 29 27 30 58 86 70 100 69
25 24 22 24 18 18 17 14 11 11 13 16 36 41 53 68 57 61 69 83 80 88 85 88 100 100 100 98 61 48 30 30 32 32 39 56 30 27 29 57 100 78 87
38 34 32 30 26 24 26 23 19 16 13 14 11 14 19 36 59 82 85 86 76 64 73 72 72 83 76 70 80 62 55 37 29 36 40 52 81 46 29 46 96 94 68
69 48 38 37 40 47 55 39 32 21 19 16 16 12 13 13 21 37 40 63 95 88 73 63 61 51 60 56 52 54 55 46 45 34 35 41 63 70 41 37 75 71 88
88 84 58 42 43 45 46 52 53 51 33 23 26 37 32 19 26 32 40 52 84 65 64 80 89 97 91 92 65 56 49 51 47 38 35 35 52 84 54 41 49 34 100
77 100 86 68 66 64 51 48 65 59 53 53 64 64 53 45 34 42 46 54 64 64 84 65 79 100 99 97 74 72 93 98 91 47 81 97 63 87 57 56 76 91 73
84 100 100 100 99 100 100 98 69 60 66 70 76 81 65 84 87 82 97 87 99 100 75 45 61 76 99 99 99 100 100 100 87 61 43 70 57 67 59 66 78 71 59
86 60 80 100 100 68 61 86 88 81 86 85 84 88 93 88 90 88 73 96 99 100 79 61 25 14 17 20 28 44 81 99 100 100 100 96 99 97 90 79 87 71 100
79 100 92 82 88 92 86 100 86 79 90 89 91 100 100 100 100 96 90 96 93 98 100 99 95 41 18 17 18 22 26 33 47 88 100 100 100 98 95 100 100 90 100
96 76 95 100 100 100 97 100 100 100 100 100 100 96 100 100 100 100 100 100 100 94 91 81 67 32 22 27 21 15 14 14 16 24 57 98 100 100 98 100 100 99 100
100 100 84 99 97 100 87 65 74 89 100 82 99 100 98 100 100 100 100 100 100 100 100 98 100 80 62 37 28 23 18 16 15 14 15 22 35 70 95 83 100 100 99
100 100 100 100 100 100 100 100 97 100 95 82 100 100 100 92 88 88 100 100 100 100 100 100 93 88 80 70 76 56 47 27 23 23 17 17 16 23 42 56 41 43 54
100 100 100 100 100 100 100 100 100 100 100 98 98 100 100 100 96 77 70 62 96 100 100 100 100 99 100 99 96 87 100 98 67 65 53 42 36 19 17 25 42 30 22
100 100 100 100 100 100 100 100 100 100 100 100 100 100 92 100 100 100 100 100 88 75 85 94 99 100 100 100 100 100 100 100 100 100 100 100 100 79 72 54 26 22 19
80 89 100 100 100 100 100 100 100 100 100 100 100 100 100 88 89 96 99 100 100 100 100 98 82 77 78 72 57 60 70 68 65 73 99 100 100 100 100 62 70 99 89
57 84 100 100 100 100 100 100 100 100 100 100 100 100 100 100 88 84 83 83 96 97 98 99 100 100 100 100 98 94 97 100 95 83 87 64 48 45 50 61 68 57 64
100 100 100 100 100 100 100 100 100 100 100 100 98 96 98 85 80 77 76 78 71 83 83 80 88 100 100 100 100 100 100 100 100 100 100 100 99 94 92 100 98 98 97
100 100 100 100 100 100 100 100 100 100 100 100 100 100 100 100 96 93 82 81 85 81 90 90 93 99 91 100 100 100 100 100 100 100 100 100 100 100 100 100 97 90 85
100 100 100 100 100 100 100 100 100 100 100 100 100 100 100 100 100 98 83 82 84 86 86 84 82 80 82 74 84 100 100 99 98 81 90 100 91 90 82 91 96 98 100

GFSSE_250_rhum_252.txt.gz
RH
17 23 14 28 42 30 44 36 34 54 51 39 46 55 55 51 57 56 63 64 69 65 64 72 66 68 63 58 51 48 45 36 33 32 28 24 21 19 17 15 15 13 11
8 18 25 16 23 15 23 35 47 45 33 31 32 33 39 42 38 31 34 46 50 53 52 51 54 66 63 53 41 39 32 31 26 22 20 18 17 14 13 12 10 9 9
10 8 13 25 22 14 16 26 26 34 44 27 17 14 10 11 11 15 15 19 19 26 26 28 30 34 33 34 30 27 24 22 20 18 16 15 13 12 11 10 8 8 8
12 10 8 11 17 27 31 27 32 36 49 44 27 27 25 21 32 24 16 14 12 12 12 15 18 24 26 29 26 24 22 20 17 15 15 14 13 13 12 9 10 9 9
16 13 10 8 9 12 24 46 51 47 52 56 54 50 44 37 39 34 21 13 12 13 13 14 16 22 26 26 23 22 20 18 16 15 14 28 16 15 14 10 10 12 13
23 20 16 16 13 10 8 11 22 38 34 39 66 57 52 49 43 40 39 20 15 15 18 17 15 18 26 26 24 22 18 17 16 16 21 25 30 18 13 15 12 20 20
37 27 24 21 20 18 17 12 11 13 16 22 34 40 52 58 51 49 43 43 32 43 41 38 27 18 19 22 24 22 21 21 22 22 39 37 31 21 18 19 17 26 22
68 56 36 30 26 23 25 29 20 11 11 12 17 31 36 44 51 54 57 50 52 49 48 46 42 28 24 24 29 53 42 24 20 24 27 28 31 28 24 22 25 44 50
76 71 74 50 36 26 28 34 44 35 22 16 14 10 13 17 25 39 56 70 69 80 87 87 66 52 39 76 100 94 81 34 33 29 30 34 36 43 46 34 35 88 85
64 97 68 81 54 38 36 36 44 50 48 33 17 17 13 14 16 21 25 30 32 38 64 84 84 73 58 60 61 64 58 43 48 56 44 34 31 38 61 46 29 34 98
100 100 100 94 87 50 47 52 46 49 48 47 41 41 28 34 38 66 48 48 38 40 49 77 88 79 77 71 66 53 51 49 47 42 46 45 40 35 42 64 34 28 51
100 100 100 99 100 87 74 59 70 65 65 73 64 69 66 61 93 100 96 100 87 100 86 50 42 65 61 53 75 90 68 59 61 68 63 56 44 40 41 63 76 37 49
100 100 75 57 70 100 100 99 85 49 83 96 99 88 85 94 90 78 82 83 90 100 100 100 96 93 100 100 99 83 100 100 76 88 82 81 60 48 47 57 60 60 26
100 100 92 47 51 45 88 100 96 72 66 72 93 100 99 94 97 100 97 100 100 98 83 95 93 99 100 100 100 100 94 99 87 100 72 99 96 96 100 84 94 83 38
100 100 48 41 60 58 76 70 90 93 76 74 89 80 100 72 77 100 96 98 88 88 84 79 93 85 93 92 63 77 54 96 100 100 70 99 100 97 100 100 100 100 66
49 31 38 75 63 55 69 100 95 99 100 100 94 83 100 98 98 100 100 98 100 100 100 99 87 79 88 89 91 36 24 27 30 15 19 52 77 87 99 85 88 100 100
56 78 91 87 77 65 75 90 100 100 99 100 100 100 100 100 99 100 96 92 91 100 100 100 100 100 100 88 88 81 43 19 19 18 13 19 21 57 100 100 100 100 100
60 99 100 100 99 95 89 84 83 85 100 100 100 86 85 100 96 86 89 85 88 82 80 81 100 100 100 100 100 100 84 79 55 40 20 18 16 17 29 63 91 100 100
100 100 100 100 100 100 97 95 99 93 97 100 100 100 100 100 100 100 93 93 85 62 68 87 92 87 99 100 100 100 100 100 92 81 71 46 26 19 22 15 15 26 56
100 100 100 100 100 99 100 100 100 100 100 100 100 100 100 100 100 100 100 100 100 88 78 95 100 87 86 76 87 94 100 100 100 100 100 100 90 65 45 27 29 28 28
100 92 76 89 100 100 100 100 100 100 99 100 99 100 100 100 100 100 100 100 100 100 93 57 57 64 66 78 80 70 70 81 78 98 100 100 100 100 94 80 73 67 53
70 63 93 100 100 100 100 100 100 100 100 100 92 89 92 76 80 84 92 97 97 98 99 100 100 100 100 87 74 72 76 74 67 71 71 70 59 85 84 94 99 100 100
62 88 96 100 96 84 84 96 100 100 100 100 100 100 93 80 81 88 88 89 89 91 91 98 88 95 100 100 100 100 96 84 81 69 74 72 76 67 78 94 78 80 67
84 95 95 93 87 88 84 82 87 96 100 100 100 100 100 99 98 91 83 94 100 100 99 99 92 79 73 82 85 99 100 100 98 94 87 92 91 74 80 78 68 96 100
99 96 90 82 81 87 89 88 94 92 95 100 100 100 100 100 100 100 100 100 100 98 90 99 100 95 80 76 74 77 78 92 100 100 100 100 100 100 100 98 83 77 80
90 82 89 77 75 90 97 98 93 95 99 97 96 99 100 100 100 100 100 100 100 100 100 100 100 100 99 91 83 78 76 75 77 71 68 90 90 100 100 100 100 100 100

GFSSE_250_rhum_258.txt.gz
RH
41 36 45 24 13 13 15 11 15 18 18 18 25 27 24 22 20 31 48 54 42 25 20 28 30 37 40 43 40 35 42 50 48 42 47 40 37 35 31 28 23 23 20
83 42 37 52 28 19 18 14 10 10 13 16 16 24 25 18 14 16 16 23 22 22 19 15 15 19 22 22 20 18 29 31 30 34 33 28 23 22 22 19 16 12 11
96 81 45 32 49 28 22 22 17 10 12 16 13 16 22 27 27 21 26 23 23 23 23 20 13 12 12 11 13 16 17 24 29 26 24 21 19 15 12 11 15 14 11
75 100 98 45 58 56 27 25 24 17 18 19 25 14 9 13 26 29 32 32 30 27 26 27 20 12 14 18 17 14 15 16 22 24 22 19 17 14 19 28 35 24 20
82 92 100 100 84 69 57 32 29 24 26 25 30 25 16 11 10 14 20 28 36 36 37 40 41 26 33 35 33 28 21 19 18 21 22 18 17 17 43 47 33 21 18
100 100 93 100 93 100 84 62 53 42 29 27 29 29 27 26 24 20 19 18 20 23 33 36 44 45 49 54 53 49 28 24 25 20 23 22 24 21 29 38 23 23 21
100 100 100 100 100 99 96 94 76 72 57 38 37 35 37 38 35 37 24 23 24 43 30 26 28 40 40 47 54 68 69 32 25 24 27 64 52 48 45 48 37 31 24
79 94 100 100 100 100 99 95 100 96 69 76 79 52 50 49 46 52 53 48 36 44 37 74 77 36 27 27 35 48 63 65 46 60 87 68 73 57 44 61 61 38 31
66 100 98 100 100 100 100 65 100 100 99 81 99 100 85 79 61 61 74 82 59 52 100 84 90 89 96 68 31 35 45 46 69 100 100 77 68 49 43 88 88 59 41
68 92 100 100 100 100 100 91 90 100 100 100 93 100 100 100 86 72 78 100 98 81 85 100 100 93 93 98 60 24 22 36 51 83 74 54 66 46 45 66 90 64 65
31 59 88 100 89 100 100 100 81 100 100 92 100 100 100 100 100 84 69 77 98 93 99 100 100 100 94 87 86 44 47 55 68 50 82 64 45 77 99 100 100 100 100
40 26 29 46 68 100 100 100 100 100 100 100 100 100 100 100 100 100 100 100 100 98 96 99 97 100 100 100 100 85 70 66 57 47 96 100 85 59 100 100 100 100 100
65 44 28 34 45 75 100 72 88 88 100 100 100 100 90 84 100 100 100 96 92 94 100 99 100 95 65 84 84 79 83 67 41 41 66 79 56 27 34 57 100 100 100
82 58 41 33 35 42 100 52 70 100 100 100 99 100 100 87 68 64 72 52 66 65 96 78 91 92 58 52 72 73 90 84 63 44 47 59 100 81 44 79 100 100 98
62 51 59 67 56 66 77 48 71 82 94 91 94 100 100 100 100 100 100 95 100 99 84 84 91 100 94 88 67 85 87 83 89 65 79 58 78 99 49 74 100 100 100
61 70 78 81 87 96 72 92 100 100 100 100 99 100 100 100 100 100 100 100 100 100 100 99 76 70 89 92 95 87 91 100 98 99 83 92 88 71 75 83 93 86 100
76 86 80 96 100 100 100 100 100 95 88 88 99 100 100 100 100 100 100 100 100 100 100 100 99 100 100 100 100 100 100 100 92 100 90 95 100 99 54 68 79 100 100
100 100 100 100 100 100 94 82 83 80 84 87 90 95 100 100 100 100 100 100 100 100 100 100 100 100 100 100 100 100 100 100 100 100 90 100 100 79 98 82 82 64 86
100 100 100 100 100 100 100 100 100 97 100 100 100 100 100 100 100 100 100 100 100 100 100 100 100 100 94 100 100 100 100 100 100 100 100 82 94 100 84 77 95 100 64
100 100 100 100 100 98 76 59 70 69 71 73 76 88 99 98 92 93 100 100 100 100 100 100 100 100 100 100 96 93 100 100 97 82 92 97 91 100 100 88 82 69 98
100 100 100 99 87 64 60 63 64 59 52 48 48 51 52 59 74 92 95 97 98 99 94 100 100 100 100 100 100 100 100 94 98 98 100 95 78 94 100 100 100 97 76
100 88 84 77 74 58 52 62 63 63 55 51 49 48 47 44 50 64 78 86 91 98 85 84 83 74 91 99 100 100 100 100 100 100 100 100 97 80 99 100 100 100 100
98 78 82 68 56 76 95 95 81 56 47 42 40 38 44 51 57 53 51 60 77 97 100 100 94 81 72 60 71 96 100 100 100 100 100 100 100 99 82 77 70 97 98
77 89 85 94 100 88 71 59 52 42 40 40 42 40 40 40 38 32 34 41 45 50 57 82 100 100 100 93 65 59 55 74 100 100 100 100 100 100 100 93 84 96 100
100 100 100 84 58 46 40 34 32 37 42 45 49 44 42 42 40 39 40 39 33 32 38 48 50 65 84 100 94 67 61 80 70 63 99 100 100 100 100 100 100 86 83
100 100 84 58 48 40 42 53 59 61 59 49 46 42 38 38 38 39 41 41 40 39 37 36 38 41 48 65 77 77 72 62 66 76 79 93 91 90 97 100 100 98 75

GFSSE_250_rhum_264.txt.gz
RH
22 21 22 22 73 100 100 83 47 24 17 25 20 19 11 12 17 23 23 16 20 40 62 70 60 45 27 25 18 18 14 16 14 19 26 24 25 28 27 27 26 26 27
23 25 37 26 21 46 100 100 89 67 34 35 28 22 29 25 17 13 16 26 23 17 21 28 23 21 22 22 18 13 12 12 13 14 12 10 11 12 15 16 18 20 21
25 21 39 36 30 17 35 100 100 100 59 49 48 30 14 37 37 36 26 20 18 22 26 26 23 21 18 19 20 19 14 15 17 19 19 14 12 13 16 19 17 15 19
38 27 28 31 41 21 15 27 28 96 98 71 71 50 40 35 50 38 46 47 33 33 25 20 20 21 25 27 28 26 24 22 20 20 22 21 20 16 12 16 16 13 20
58 50 42 34 26 32 43 30 27 91 100 100 90 78 77 39 85 66 67 58 66 57 55 44 42 43 52 33 27 27 30 31 32 30 30 30 26 24 18 20 26 22 18
82 84 59 41 29 30 50 58 42 34 43 100 98 100 95 98 76 34 67 73 73 75 81 74 52 58 75 90 78 45 35 28 23 24 30 39 49 46 26 26 31 30 24
99 100 83 57 42 48 41 50 74 59 76 56 100 100 100 88 97 82 91 85 83 88 88 97 94 82 73 100 100 99 91 74 56 33 31 30 38 47 40 33 37 38 34
100 100 89 79 77 75 71 56 65 100 93 74 98 100 100 95 100 100 100 100 100 95 100 100 100 100 96 100 100 100 100 99 78 59 50 32 32 41 51 48 46 47 56
100 100 93 66 90 76 87 93 90 100 100 98 65 100 100 100 80 91 96 100 92 79 100 100 100 100 100 100 100 100 100 100 100 90 73 48 39 37 38 50 68 73 61
100 100 100 69 78 95 82 84 100 100 100 98 97 100 100 100 100 85 91 100 100 100 62 82 99 100 100 97 100 100 100 100 94 92 84 69 54 62 64 44 74 65 71
93 100 96 97 92 100 82 100 100 100 100 99 92 80 100 99 100 78 88 100 100 100 100 82 87 73 76 81 64 100 96 100 98 100 100 87 70 74 53 56 59 72 94
100 100 100 98 88 98 86 100 100 100 100 100 100 100 100 87 98 92 81 57 100 100 100 100 100 100 100 100 86 98 94 100 95 99 92 100 97 72 48 47 41 39 61
100 100 100 100 92 100 100 100 100 100 100 78 66 61 69 66 66 84 88 99 100 100 100 100 84 79 91 100 100 92 68 94 61 74 100 100 100 86 58 64 56 45 55
100 100 100 100 100 100 100 100 95 91 92 74 62 69 65 60 66 82 94 100 100 100 100 100 86 99 74 96 100 100 86 72 70 89 86 82 100 99 81 95 80 70 60
100 100 100 97 100 100 100 100 100 100 100 100 100 100 100 100 100 100 100 100 100 100 100 100 94 92 92 85 100 100 100 99 100 99 88 84 82 100 99 93 94 73 66
100 100 100 100 100 100 100 100 100 100 100 100 100 100 100 100 100 100 100 100 100 100 100 100 100 100 100 99 100 100 100 100 100 100 100 100 95 100 100 100 100 99 77
100 100 100 100 100 100 100 100 100 100 100 100 100 100 100 100 100 100 100 94 100 100 100 100 100 100 100 100 100 100 82 96 100 100 100 100 100 100 100 100 100 100 96
98 84 98 92 96 99 96 80 88 93 100 100 100 100 100 100 98 89 80 77 76 78 85 98 100 100 100 100 100 100 100 97 83 92 100 100 100 100 100 100 100 100 100
49 36 36 48 45 41 44 51 72 100 100 100 100 93 77 56 46 42 38 44 54 59 58 56 68 100 100 100 100 100 100 100 100 96 99 100 100 100 100 96 88 73 98
42 41 35 49 61 89 95 100 100 99 93 78 61 51 41 40 40 42 43 42 41 40 42 45 43 48 71 100 100 100 100 100 100 100 100 100 99 96 100 100 68 58 65
100 93 100 100 100 100 100 100 98 90 74 51 45 45 57 62 54 50 40 34 30 31 30 28 28 27 28 39 47 71 97 100 100 100 100 100 100 100 100 100 100 100 100
100 100 100 100 100 100 100 86 65 56 51 65 79 85 78 57 50 40 34 32 31 32 33 33 34 35 35 32 34 39 41 45 91 100 100 100 100 100 100 100 90 80 77
100 100 100 100 100 98 69 65 64 83 100 99 86 71 53 43 37 34 32 33 34 35 35 35 34 36 39 37 38 41 45 52 51 38 66 99 100 100 100 100 100 94 68
86 98 87 85 91 77 74 86 93 100 99 74 57 45 38 34 34 33 35 36 36 33 32 36 40 45 48 55 41 36 39 44 54 62 48 36 44 68 95 100 100 100 100
58 71 80 86 79 85 100 100 100 84 62 46 40 37 36 37 40 43 41 37 42 68 89 100 94 97 87 84 86 86 81 71 61 58 63 74 37 35 42 53 93 100 100
77 99 100 100 100 100 100 97 72 48 44 39 38 41 46 48 44 41 40 61 98 97 99 95 82 80 84 76 65 62 61 61 63 63 62 66 76 72 30 34 41 47 87